This demonstration page uses our WeatherBlox Daily Observations layout. Learn more.

Left ArrowRight Arrow

Hourly Observations for October 6, 2022

Temp ( °F °C ) Dew Point ( °F °C ) Humidity (%) Winds ( mph kmh ) Pressure ( in mb ) Visibility ( mi km ) Precip ( " mm )
12:53 am 00:53 Clear 44 6.7 41 5 89 89 Calm 30.09 1019 10 16 0.00 0.00
1:53 am 01:53 Clear 44 6.7 41 5 89 89 Calm 30.09 1019 10 16 0.00 0.00
2:53 am 02:53 Clear 45 7.2 42 5.6 90 90 Calm 30.09 1019 10 16 0.00 0.00
3:53 am 03:53 Clear 45 7.2 43 6.1 93 93 Calm 30.08 1019 10 16 0.00 0.00
4:53 am 04:53 Clear 47 8.3 45 7.2 93 93 Calm 30.07 1018 10 16 0.00 0.00
5:53 am 05:53 Clear 47 8.3 45 7.2 93 93 Calm 30.07 1018 10 16 0.00 0.00
6:53 am 06:53 Clear 48 8.9 46 7.8 93 93 Calm 30.08 1019 10 16 0.00 0.00
7:53 am 07:53 Sunny 48 8.9 46 7.8 93 93 Calm 30.09 1019 10 16 0.00 0.00
8:53 am 08:53 Mostly Sunny 50 10 48 8.9 93 93 Calm 30.10 1019 10 16 0.00 0.00
9:53 am 09:53 Sunny 56 13.3 50 10 80 80 Calm 30.11 1020 10 16 0.00 0.00
10:53 am 10:53 Mostly Cloudy 61 16.1 47 8.3 60 60 Calm 30.11 1020 10 16 0.00 0.00
11:53 am 11:53 Cloudy 61 16.1 52 11.1 72 72 Calm 30.09 1019 10 16 0.01 0.13
12:53 pm 12:53 Partly Cloudy 67 19.4 48 8.9 51 51 VRB 3 6 30.08 1019 10 16 0.00 0.00
1:53 pm 13:53 Sunny 72 22.2 45 7.2 38 38 Calm 30.05 1018 10 16 0.00 0.00
2:53 pm 14:53 Partly Cloudy 74 23.3 45 7.2 36 36 VRB 5 7 30.04 1017 10 16 0.00 0.00
3:53 pm 15:53 Mostly Cloudy 72 22.2 49 9.4 44 44 Calm 30.03 1017 10 16 0.00 0.00
4:53 pm 16:53 Cloudy 72 22.2 48 8.9 43 43 Calm 30.03 1017 10 16 0.00 0.00
5:53 pm 17:53 Partly Cloudy 71 21.7 50 10 47 47 Calm 30.03 1017 10 16 0.00 0.00
6:53 pm 18:53 Mostly Cloudy 64 17.8 51 10.6 63 63 Calm 30.03 1017 10 16 0.00 0.00
7:53 pm 19:53 Cloudy 60 15.6 52 11.1 75 75 Calm 30.04 1017 10 16 0.00 0.00
8:53 pm 20:53 Clear 55 12.8 50 10 83 83 Calm 30.05 1018 10 16 0.00 0.00
9:53 pm 21:53 Clear 52 11.1 49 9.4 89 89 Calm 30.06 1018 10 16 0.00 0.00
10:53 pm 22:53 Mostly Clear 50 10 47 8.3 89 89 Calm 30.06 1018 10 16 0.00 0.00
11:53 pm 23:53 Clear 49 9.4 46 7.8 90 90 Calm 30.06 1018 10 16 0.00 0.00

Powered by AerisWeather